Location: Heidgraben
(53.7081°N, 9.6576°E)
Time: 20:48:02
(UTC+00:00)

Cosmos 1933 - Pass Details

Date: 05 July 2020
Orbit: 548 x 562 km, 82.5° (Epoch: 14 August)

Event Time Altitude Azimuth Distance (km) Brightness Sun altitude
Rises 23:30:12 0° 342° (NNW) 2,735 8.4 -13.6°
Reaches altitude 10° 23:32:29 10° 333° (NNW) 1,836 7.0 -13.6°
Maximum altitude 23:36:10 34° 268° (W) 914 4.4 -13.6°
Enters shadow 23:38:30 19° 214° (SW) 1,364 4.8 -13.6°
